Time,TemperatureF,DewpointF,PressureIn,WindDirection,WindDirectionDegrees,WindSpeedMPH,WindSpeedGustMPH,Humidity,HourlyPrecipIn,Conditions,Clouds,dailyrainin,SoftwareType,DateUTC
2013-08-18 00:01:00,63.1,45.8,29.83,NNE,32,0.0,0.0,53,0.00,,SKC,0.00,VWS V14.01,2013-08-18 04:01:00,
2013-08-18 00:06:00,63.0,45.6,29.83,NNE,32,0.0,0.0,53,0.00,,SKC,0.00,VWS V14.01,2013-08-18 04:06:00,
2013-08-18 00:11:00,62.8,45.4,29.83,NNE,32,0.0,0.0,53,0.00,,SKC,0.00,VWS V14.01,2013-08-18 04:11:00,
2013-08-18 00:16:00,62.6,45.2,29.83,NNE,32,0.0,0.0,53,0.00,,SKC,0.00,VWS V14.01,2013-08-18 04:16:00,
2013-08-18 00:21:00,62.6,45.2,29.83,NNE,32,0.0,0.0,53,0.00,,SKC,0.00,VWS V14.01,2013-08-18 04:21:00,
2013-08-18 00:26:00,62.6,45.2,29.83,NNE,32,0.0,0.0,53,0.00,,SKC,0.00,VWS V14.01,2013-08-18 04:26:00,
2013-08-18 00:31:00,62.6,45.2,29.83,NNE,32,0.0,0.0,53,0.00,,SKC,0.00,VWS V14.01,2013-08-18 04:31:00,
2013-08-18 00:36:00,62.6,45.2,29.83,NNE,32,0.0,0.0,53,0.00,,SKC,0.00,VWS V14.01,2013-08-18 04:36:00,
2013-08-18 00:41:00,62.4,45.6,29.83,NNE,32,0.0,0.0,54,0.00,,SKC,0.00,VWS V14.01,2013-08-18 04:41:00,
2013-08-18 00:46:00,62.4,45.6,29.83,NNE,32,0.0,0.0,54,0.00,,SKC,0.00,VWS V14.01,2013-08-18 04:46:00,
2013-08-18 00:51:00,62.4,45.6,29.83,NNE,32,0.0,0.0,54,0.00,,SKC,0.00,VWS V14.01,2013-08-18 04:51:00,
2013-08-18 00:56:00,62.2,45.4,29.80,NNE,32,0.0,0.0,54,0.00,,SKC,0.00,VWS V14.01,2013-08-18 04:56:00,
2013-08-18 01:01:00,62.2,45.4,29.80,NNE,32,0.0,0.0,54,0.00,,SKC,0.00,VWS V14.01,2013-08-18 05:01:00,
2013-08-18 01:06:00,62.2,45.4,29.80,NNE,32,0.0,0.0,54,0.00,,SKC,0.00,VWS V14.01,2013-08-18 05:06:00,
2013-08-18 01:11:00,62.2,45.4,29.80,NNE,32,0.0,0.0,54,0.00,,SKC,0.00,VWS V14.01,2013-08-18 05:11:00,
2013-08-18 01:16:00,62.1,45.2,29.80,NNE,32,0.0,0.0,54,0.00,,SKC,0.00,VWS V14.01,2013-08-18 05:16:00,
2013-08-18 01:21:00,61.9,45.1,29.80,NNE,32,0.0,0.0,54,0.00,,SKC,0.00,VWS V14.01,2013-08-18 05:21:00,
2013-08-18 01:26:00,61.7,44.9,29.80,NNE,32,0.0,0.0,54,0.00,,SKC,0.00,VWS V14.01,2013-08-18 05:26:00,
2013-08-18 01:30:00,61.5,44.7,29.80,NNE,32,0.0,0.0,54,0.00,,SKC,0.00,VWS V14.01,2013-08-18 05:30:00,
2013-08-18 01:35:00,61.3,45.0,29.80,NNE,32,0.0,0.0,55,0.00,,SKC,0.00,VWS V14.01,2013-08-18 05:35:00,
2013-08-18 01:40:00,61.3,45.0,29.80,NNE,32,0.0,0.0,55,0.00,,SKC,0.00,VWS V14.01,2013-08-18 05:40:00,
2013-08-18 01:45:00,61.2,44.9,29.80,NNE,32,0.0,0.0,55,0.00,,SKC,0.00,VWS V14.01,2013-08-18 05:45:00,
2013-08-18 01:50:00,61.2,44.9,29.80,NNE,32,0.0,0.0,55,0.00,,SKC,0.00,VWS V14.01,2013-08-18 05:50:00,
2013-08-18 01:55:00,61.0,44.7,29.80,NNE,32,0.0,0.0,55,0.00,,SKC,0.00,VWS V14.01,2013-08-18 05:55:00,
2013-08-18 02:00:00,61.0,44.7,29.80,NNE,32,0.0,0.0,55,0.00,,SKC,0.00,VWS V14.01,2013-08-18 06:00:00,
2013-08-18 02:05:00,61.0,45.2,29.80,NNE,32,0.0,0.0,56,0.00,,SKC,0.00,VWS V14.01,2013-08-18 06:05:00,
2013-08-18 02:10:00,61.0,45.2,29.80,NNE,32,0.0,0.0,56,0.00,,SKC,0.00,VWS V14.01,2013-08-18 06:10:00,
2013-08-18 02:15:00,61.0,45.2,29.80,NNE,32,0.0,0.0,56,0.00,,SKC,0.00,VWS V14.01,2013-08-18 06:15:00,
2013-08-18 02:20:00,61.0,45.2,29.80,NNE,32,0.0,0.0,56,0.00,,SKC,0.00,VWS V14.01,2013-08-18 06:20:00,
2013-08-18 02:25:00,61.0,45.2,29.80,NNE,32,0.0,0.0,56,0.00,,SKC,0.00,VWS V14.01,2013-08-18 06:25:00,
2013-08-18 02:30:00,61.0,45.2,29.80,NNE,32,0.0,0.0,56,0.00,,SKC,0.00,VWS V14.01,2013-08-18 06:30:00,
2013-08-18 02:35:00,61.0,45.7,29.80,NNE,32,0.0,0.0,57,0.00,,SKC,0.00,VWS V14.01,2013-08-18 06:35:00,
2013-08-18 02:40:00,61.0,45.7,29.80,NNE,32,0.0,0.0,57,0.00,,SKC,0.00,VWS V14.01,2013-08-18 06:40:00,
2013-08-18 02:45:00,60.8,45.5,29.80,NNE,32,0.0,0.0,57,0.00,,SKC,0.00,VWS V14.01,2013-08-18 06:45:00,
2013-08-18 02:50:00,60.8,45.5,29.80,NNE,32,0.0,0.0,57,0.00,,SKC,0.00,VWS V14.01,2013-08-18 06:50:00,
2013-08-18 02:55:00,60.8,45.5,29.80,NNE,32,0.0,0.0,57,0.00,,SKC,0.00,VWS V14.01,2013-08-18 06:55:00,
2013-08-18 03:00:00,60.8,45.5,29.80,NNE,32,0.0,0.0,57,0.00,,SKC,0.00,VWS V14.01,2013-08-18 07:00:00,
2013-08-18 03:05:00,60.6,45.8,29.80,NNE,32,0.0,0.0,58,0.00,,SKC,0.00,VWS V14.01,2013-08-18 07:05:00,
2013-08-18 03:10:00,60.6,45.8,29.80,NNE,32,0.0,0.0,58,0.00,,SKC,0.00,VWS V14.01,2013-08-18 07:10:00,
2013-08-18 03:15:00,60.6,45.8,29.80,NNE,32,0.0,0.0,58,0.00,,SKC,0.00,VWS V14.01,2013-08-18 07:15:00,
2013-08-18 03:20:00,60.6,45.8,29.80,NNE,32,0.0,0.0,58,0.00,,SKC,0.00,VWS V14.01,2013-08-18 07:20:00,
2013-08-18 03:25:00,60.4,46.1,29.80,NNE,32,0.0,0.0,59,0.00,,SKC,0.00,VWS V14.01,2013-08-18 07:25:00,
2013-08-18 03:30:00,60.4,46.1,29.80,NNE,32,0.0,0.0,59,0.00,,SKC,0.00,VWS V14.01,2013-08-18 07:30:00,
2013-08-18 03:35:00,60.4,46.1,29.80,NNE,32,0.0,0.0,59,0.00,,SKC,0.00,VWS V14.01,2013-08-18 07:35:00,
2013-08-18 03:40:00,60.4,46.1,29.80,NNE,32,0.0,0.0,59,0.00,,SKC,0.00,VWS V14.01,2013-08-18 07:40:00,
2013-08-18 03:45:00,60.4,46.1,29.80,NNE,32,0.0,0.0,59,0.00,,SKC,0.00,VWS V14.01,2013-08-18 07:45:00,
2013-08-18 03:50:00,60.4,46.5,29.80,NNE,32,0.0,0.0,60,0.00,,SKC,0.00,VWS V14.01,2013-08-18 07:50:00,
2013-08-18 03:55:00,60.4,46.5,29.80,NNE,32,0.0,0.0,60,0.00,,SKC,0.00,VWS V14.01,2013-08-18 07:55:00,
2013-08-18 04:00:00,60.4,46.5,29.80,NNE,32,0.0,0.0,60,0.00,,SKC,0.00,VWS V14.01,2013-08-18 08:00:00,
2013-08-18 04:05:00,60.4,46.5,29.80,NNE,32,0.0,0.0,60,0.00,,SKC,0.00,VWS V14.01,2013-08-18 08:05:00,
2013-08-18 04:10:00,60.4,46.9,29.80,NNE,32,0.0,0.0,61,0.00,,SKC,0.00,VWS V14.01,2013-08-18 08:10:00,
2013-08-18 04:15:00,60.4,46.9,29.80,NNE,32,0.0,0.0,61,0.00,,SKC,0.00,VWS V14.01,2013-08-18 08:15:00,
2013-08-18 04:20:00,60.4,46.9,29.80,NNE,32,0.0,0.0,61,0.00,,SKC,0.00,VWS V14.01,2013-08-18 08:20:00,
2013-08-18 04:25:00,60.4,46.9,29.80,NNE,32,0.0,0.0,61,0.00,,SKC,0.00,VWS V14.01,2013-08-18 08:25:00,
2013-08-18 04:30:00,60.4,46.9,29.80,NNE,32,0.0,0.0,61,0.00,,SKC,0.00,VWS V14.01,2013-08-18 08:30:00,
2013-08-18 04:35:00,60.4,47.4,29.80,NNE,32,0.0,0.0,62,0.00,,SKC,0.00,VWS V14.01,2013-08-18 08:35:00,
2013-08-18 04:40:00,60.4,47.4,29.80,NNE,32,0.0,0.0,62,0.00,,SKC,0.00,VWS V14.01,2013-08-18 08:40:00,
2013-08-18 04:45:00,60.4,47.4,29.80,NNE,32,0.0,0.0,62,0.00,,SKC,0.00,VWS V14.01,2013-08-18 08:45:00,
2013-08-18 04:50:00,60.4,47.4,29.80,NNE,32,0.0,0.0,62,0.00,,SKC,0.00,VWS V14.01,2013-08-18 08:50:00,
2013-08-18 04:55:00,60.6,47.5,29.80,NNE,32,0.0,0.0,62,0.00,,SKC,0.00,VWS V14.01,2013-08-18 08:55:00,
2013-08-18 05:00:00,60.4,47.4,29.80,NNE,32,0.0,0.0,62,0.00,,SKC,0.00,VWS V14.01,2013-08-18 09:00:00,
2013-08-18 05:05:00,60.4,47.8,29.80,NNE,32,0.0,0.0,63,0.00,,SKC,0.00,VWS V14.01,2013-08-18 09:05:00,
2013-08-18 05:10:00,60.6,48.0,29.80,NNE,32,0.0,0.0,63,0.00,,SKC,0.00,VWS V14.01,2013-08-18 09:10:00,
2013-08-18 05:15:00,60.6,48.0,29.80,NNE,32,0.0,0.0,63,0.00,,SKC,0.00,VWS V14.01,2013-08-18 09:15:00,
2013-08-18 05:20:00,60.6,48.0,29.80,NNE,32,0.0,0.0,63,0.00,,SKC,0.00,VWS V14.01,2013-08-18 09:20:00,
2013-08-18 05:25:00,60.6,48.0,29.80,NNE,32,0.0,0.0,63,0.00,,SKC,0.00,VWS V14.01,2013-08-18 09:25:00,
2013-08-18 05:30:00,60.6,48.4,29.80,NNE,32,0.0,0.0,64,0.00,,SKC,0.00,VWS V14.01,2013-08-18 09:30:00,
2013-08-18 05:35:00,60.6,48.4,29.80,NNE,32,0.0,0.0,64,0.00,,SKC,0.00,VWS V14.01,2013-08-18 09:35:00,
2013-08-18 05:40:00,60.8,48.1,29.80,NNE,32,0.0,0.0,63,0.00,,SKC,0.00,VWS V14.01,2013-08-18 09:40:00,
2013-08-18 05:45:00,60.8,48.6,29.80,NNE,32,0.0,0.0,64,0.00,,SKC,0.00,VWS V14.01,2013-08-18 09:45:00,
2013-08-18 05:50:00,61.0,48.7,29.80,NNE,32,0.0,0.0,64,0.00,,SKC,0.00,VWS V14.01,2013-08-18 09:50:00,
2013-08-18 05:55:00,61.0,48.7,29.80,NNE,32,0.0,0.0,64,0.00,,SKC,0.00,VWS V14.01,2013-08-18 09:55:00,
2013-08-18 06:00:00,61.0,48.7,29.80,NNE,32,0.0,0.0,64,0.00,,SKC,0.00,VWS V14.01,2013-08-18 10:00:00,
2013-08-18 06:05:00,61.0,48.7,29.80,NNE,32,0.0,0.0,64,0.00,,SKC,0.00,VWS V14.01,2013-08-18 10:05:00,
2013-08-18 06:10:00,61.0,48.7,29.80,NNE,32,0.0,0.0,64,0.00,,SKC,0.00,VWS V14.01,2013-08-18 10:10:00,
2013-08-18 06:15:00,61.0,48.7,29.80,NNE,32,0.0,0.0,64,0.00,,SKC,0.00,VWS V14.01,2013-08-18 10:15:00,
2013-08-18 06:20:00,61.0,48.7,29.80,NNE,32,0.0,0.0,64,0.00,,SKC,0.00,VWS V14.01,2013-08-18 10:20:00,
2013-08-18 06:25:00,61.0,48.7,29.80,NNE,32,0.0,0.0,64,0.00,,SKC,0.00,VWS V14.01,2013-08-18 10:25:00,
2013-08-18 06:30:00,61.0,48.7,29.80,NNE,32,0.0,0.0,64,0.00,,SKC,0.00,VWS V14.01,2013-08-18 10:30:00,
2013-08-18 06:35:00,61.0,49.2,29.80,NNE,32,0.0,0.0,65,0.00,,SKC,0.00,VWS V14.01,2013-08-18 10:35:00,
2013-08-18 06:40:00,61.0,49.2,29.80,NNE,32,0.0,0.0,65,0.00,,SKC,0.00,VWS V14.01,2013-08-18 10:40:00,
2013-08-18 06:45:00,61.0,49.2,29.80,NNE,32,0.0,0.0,65,0.00,,SKC,0.00,VWS V14.01,2013-08-18 10:45:00,
2013-08-18 06:50:00,61.0,49.2,29.80,NNE,32,0.0,0.0,65,0.00,,SKC,0.00,VWS V14.01,2013-08-18 10:50:00,
2013-08-18 06:55:00,61.2,49.3,29.80,NNE,32,0.0,0.0,65,0.00,,SKC,0.00,VWS V14.01,2013-08-18 10:55:00,
2013-08-18 07:00:00,61.3,49.5,29.80,NNE,32,0.0,0.0,65,0.00,,SKC,0.00,VWS V14.01,2013-08-18 11:00:00,
2013-08-18 07:05:00,61.3,49.5,29.80,NNE,32,0.0,0.0,65,0.00,,SKC,0.00,VWS V14.01,2013-08-18 11:05:00,
2013-08-18 07:10:00,61.3,49.5,29.80,NNE,32,0.0,0.0,65,0.00,,SKC,0.00,VWS V14.01,2013-08-18 11:10:00,
2013-08-18 07:15:00,61.5,49.7,29.80,NNE,32,0.0,0.0,65,0.00,,SKC,0.00,VWS V14.01,2013-08-18 11:15:00,
2013-08-18 07:20:00,61.7,49.8,29.80,NNE,32,0.0,0.0,65,0.00,,SKC,0.00,VWS V14.01,2013-08-18 11:20:00,
2013-08-18 07:25:00,61.7,49.8,29.80,NNE,32,0.0,0.0,65,0.00,,SKC,0.00,VWS V14.01,2013-08-18 11:25:00,
2013-08-18 07:30:00,61.7,49.8,29.80,NNE,32,0.0,0.0,65,0.00,,SKC,0.00,VWS V14.01,2013-08-18 11:30:00,
2013-08-18 07:34:00,61.9,50.0,29.80,NNE,32,0.0,0.0,65,0.00,,SKC,0.00,VWS V14.01,2013-08-18 11:34:00,
2013-08-18 07:39:00,62.1,50.2,29.80,NNE,32,0.0,0.0,65,0.00,,SKC,0.00,VWS V14.01,2013-08-18 11:39:00,
2013-08-18 07:44:00,62.2,50.3,29.80,NNE,32,0.0,0.0,65,0.00,,SKC,0.00,VWS V14.01,2013-08-18 11:44:00,
2013-08-18 07:49:00,62.6,50.7,29.80,NNE,32,0.0,0.0,65,0.00,,SKC,0.00,VWS V14.01,2013-08-18 11:49:00,
2013-08-18 07:54:00,63.0,51.0,29.83,NNE,32,0.0,0.0,65,0.00,,SKC,0.00,VWS V14.01,2013-08-18 11:54:00,
2013-08-18 07:59:00,63.1,51.2,29.83,NNE,32,0.0,0.0,65,0.00,,SKC,0.00,VWS V14.01,2013-08-18 11:59:00,
2013-08-18 08:04:00,63.5,51.5,29.83,NNE,32,0.0,0.0,65,0.00,,SKC,0.00,VWS V14.01,2013-08-18 12:04:00,
2013-08-18 08:09:00,63.9,51.9,29.80,NNE,32,0.0,0.0,65,0.00,,SKC,0.00,VWS V14.01,2013-08-18 12:09:00,
2013-08-18 08:14:00,64.0,51.6,29.80,NNE,32,0.0,0.0,64,0.00,,SKC,0.00,VWS V14.01,2013-08-18 12:14:00,
2013-08-18 08:19:00,64.2,51.8,29.80,NNE,32,0.0,0.0,64,0.00,,SKC,0.00,VWS V14.01,2013-08-18 12:19:00,
2013-08-18 08:24:00,64.2,50.5,29.80,NNE,32,0.0,0.0,61,0.00,,SKC,0.00,VWS V14.01,2013-08-18 12:24:00,
2013-08-18 08:29:00,64.2,49.6,29.80,NNE,32,0.0,0.0,59,0.00,,SKC,0.00,VWS V14.01,2013-08-18 12:29:00,
2013-08-18 08:34:00,64.4,46.4,29.80,NNE,32,0.0,0.0,52,0.00,,SKC,0.00,VWS V14.01,2013-08-18 12:34:00,
2013-08-18 08:39:00,64.9,46.4,29.80,NNE,32,0.0,0.0,51,0.00,,SKC,0.00,VWS V14.01,2013-08-18 12:39:00,
2013-08-18 08:44:00,65.5,46.9,29.80,NNE,32,0.0,0.0,51,0.00,,SKC,0.00,VWS V14.01,2013-08-18 12:44:00,
2013-08-18 08:49:00,65.7,46.5,29.80,NNE,32,0.0,0.0,50,0.00,,SKC,0.00,VWS V14.01,2013-08-18 12:49:00,
2013-08-18 08:54:00,66.0,44.7,29.80,NNE,32,0.0,0.0,46,0.00,,SKC,0.00,VWS V14.01,2013-08-18 12:54:00,
2013-08-18 08:59:00,66.4,43.8,29.80,NNE,32,0.0,0.0,44,0.00,,SKC,0.00,VWS V14.01,2013-08-18 12:59:00,
2013-08-18 09:04:00,66.9,44.9,29.80,NNE,32,0.0,0.0,45,0.00,,SKC,0.00,VWS V14.01,2013-08-18 13:04:00,
2013-08-18 09:09:00,67.3,45.2,29.80,NNE,32,0.0,0.0,45,0.00,,SKC,0.00,VWS V14.01,2013-08-18 13:09:00,
2013-08-18 09:14:00,67.6,45.6,29.80,NNE,32,0.0,0.0,45,0.00,,SKC,0.00,VWS V14.01,2013-08-18 13:14:00,
2013-08-18 09:19:00,68.2,45.5,29.80,NNE,32,0.0,0.0,44,0.00,,SKC,0.00,VWS V14.01,2013-08-18 13:19:00,
2013-08-18 09:24:00,68.5,45.8,29.80,NNE,32,0.0,0.0,44,0.00,,SKC,0.00,VWS V14.01,2013-08-18 13:24:00,
2013-08-18 09:29:00,69.1,46.3,29.80,NNE,32,0.0,0.0,44,0.00,,SKC,0.00,VWS V14.01,2013-08-18 13:29:00,
2013-08-18 09:34:00,68.9,45.5,29.80,NNE,32,0.0,0.0,43,0.00,,SKC,0.00,VWS V14.01,2013-08-18 13:34:00,
2013-08-18 09:39:00,68.9,45.5,29.80,NNE,32,0.0,0.0,43,0.00,,SKC,0.00,VWS V14.01,2013-08-18 13:39:00,
2013-08-18 09:44:00,69.1,45.7,29.80,NNE,32,0.0,0.0,43,0.00,,SKC,0.00,VWS V14.01,2013-08-18 13:44:00,
2013-08-18 09:49:00,69.4,46.0,29.80,NNE,32,0.0,0.0,43,0.00,,SKC,0.00,VWS V14.01,2013-08-18 13:49:00,
2013-08-18 09:54:00,69.8,45.1,29.80,NNE,32,0.0,0.0,41,0.00,,SKC,0.00,VWS V14.01,2013-08-18 13:54:00,
2013-08-18 09:59:00,70.0,44.6,29.80,NNE,32,0.0,0.0,40,0.00,,SKC,0.00,VWS V14.01,2013-08-18 13:59:00,
2013-08-18 10:04:00,70.2,43.4,29.80,NNE,32,0.0,0.0,38,0.00,,SKC,0.00,VWS V14.01,2013-08-18 14:04:00,
2013-08-18 10:09:00,70.3,42.9,29.80,NNE,32,0.0,0.0,37,0.00,,SKC,0.00,VWS V14.01,2013-08-18 14:09:00,
2013-08-18 10:14:00,70.5,43.0,29.80,NNE,32,0.0,0.0,37,0.00,,SKC,0.00,VWS V14.01,2013-08-18 14:14:00,
2013-08-18 10:19:00,70.7,42.5,29.80,NNE,32,0.0,0.0,36,0.00,,SKC,0.00,VWS V14.01,2013-08-18 14:19:00,
2013-08-18 10:24:00,71.1,42.8,29.80,NNE,32,0.0,0.0,36,0.00,,SKC,0.00,VWS V14.01,2013-08-18 14:24:00,
2013-08-18 10:29:00,71.2,41.5,29.80,NNE,32,0.0,0.0,34,0.00,,SKC,0.00,VWS V14.01,2013-08-18 14:29:00,
2013-08-18 10:34:00,71.4,40.8,29.80,NNE,32,0.0,0.0,33,0.00,,SKC,0.00,VWS V14.01,2013-08-18 14:34:00,
2013-08-18 10:39:00,71.8,41.2,29.80,NNE,32,0.0,0.0,33,0.00,,SKC,0.00,VWS V14.01,2013-08-18 14:39:00,
2013-08-18 10:44:00,71.8,40.4,29.80,NNE,32,0.0,0.0,32,0.00,,SKC,0.00,VWS V14.01,2013-08-18 14:44:00,
2013-08-18 10:49:00,71.6,40.2,29.80,NNE,32,0.0,0.0,32,0.00,,SKC,0.00,VWS V14.01,2013-08-18 14:49:00,
2013-08-18 10:54:00,71.8,39.5,29.80,NNE,32,0.0,0.0,31,0.00,,SKC,0.00,VWS V14.01,2013-08-18 14:54:00,
2013-08-18 10:59:00,71.8,40.4,29.80,NNE,32,0.0,0.0,32,0.00,,SKC,0.00,VWS V14.01,2013-08-18 14:59:00,
2013-08-18 11:04:00,72.0,40.5,29.80,NNE,32,0.0,0.0,32,0.00,,SKC,0.00,VWS V14.01,2013-08-18 15:04:00,
2013-08-18 11:09:00,72.1,40.7,29.80,NNE,32,0.0,0.0,32,0.00,,SKC,0.00,VWS V14.01,2013-08-18 15:09:00,
2013-08-18 11:14:00,72.3,40.0,29.80,East,97,0.0,0.0,31,0.00,,SKC,0.00,VWS V14.01,2013-08-18 15:14:00,
2013-08-18 11:19:00,72.5,41.0,29.80,ENE,57,0.0,0.0,32,0.00,,SKC,0.00,VWS V14.01,2013-08-18 15:19:00,
2013-08-18 11:24:00,72.5,41.0,29.80,ENE,70,0.0,0.0,32,0.00,,SKC,0.00,VWS V14.01,2013-08-18 15:24:00,
2013-08-18 11:29:00,72.7,41.2,29.80,ENE,70,0.0,0.0,32,0.00,,SKC,0.00,VWS V14.01,2013-08-18 15:29:00,
2013-08-18 11:34:00,72.9,40.5,29.80,ENE,70,0.0,0.0,31,0.00,,SKC,0.00,VWS V14.01,2013-08-18 15:34:00,
2013-08-18 11:39:00,73.2,40.8,29.80,NNE,19,0.0,0.0,31,0.00,,SKC,0.00,VWS V14.01,2013-08-18 15:39:00,
2013-08-18 11:44:00,73.6,40.3,29.80,NNE,20,0.0,0.0,30,0.00,,SKC,0.00,VWS V14.01,2013-08-18 15:44:00,
2013-08-18 11:49:00,73.8,38.7,29.80,ENE,61,4.8,4.8,28,0.00,,SKC,0.00,VWS V14.01,2013-08-18 15:49:00,
2013-08-18 11:54:00,73.6,37.6,29.80,ENE,71,7.2,7.2,27,0.00,,SKC,0.00,VWS V14.01,2013-08-18 15:54:00,
2013-08-18 11:59:00,73.4,39.2,29.80,ENE,66,0.0,0.0,29,0.00,,SKC,0.00,VWS V14.01,2013-08-18 15:59:00,
2013-08-18 12:04:00,73.4,40.1,29.80,ENE,66,0.0,0.0,30,0.00,,SKC,0.00,VWS V14.01,2013-08-18 16:04:00,
2013-08-18 12:09:00,73.4,40.1,29.80,ENE,66,0.0,0.0,30,0.00,,SKC,0.00,VWS V14.01,2013-08-18 16:09:00,
2013-08-18 12:14:00,73.6,41.1,29.80,ENE,66,0.0,0.0,31,0.00,,SKC,0.00,VWS V14.01,2013-08-18 16:14:00,
2013-08-18 12:19:00,73.4,41.0,29.80,ENE,66,0.0,0.0,31,0.00,,SKC,0.00,VWS V14.01,2013-08-18 16:19:00,
2013-08-18 12:24:00,73.2,41.6,29.80,ENE,66,0.0,0.0,32,0.00,,SKC,0.00,VWS V14.01,2013-08-18 16:24:00,
2013-08-18 12:29:00,73.2,41.6,29.80,ENE,66,0.0,0.0,32,0.00,,SKC,0.00,VWS V14.01,2013-08-18 16:29:00,
2013-08-18 12:34:00,73.4,42.6,29.80,ENE,66,0.0,0.0,33,0.00,,SKC,0.00,VWS V14.01,2013-08-18 16:34:00,
2013-08-18 12:39:00,73.2,42.4,29.80,ENE,66,0.0,0.0,33,0.00,,SKC,0.00,VWS V14.01,2013-08-18 16:39:00,
2013-08-18 12:44:00,73.2,43.2,29.80,ENE,66,0.0,0.0,34,0.00,,SKC,0.00,VWS V14.01,2013-08-18 16:44:00,
2013-08-18 12:49:00,72.9,42.1,29.80,ENE,66,0.0,0.0,33,0.00,,SKC,0.00,VWS V14.01,2013-08-18 16:49:00,
2013-08-18 12:54:00,72.7,42.7,29.80,ENE,66,0.0,0.0,34,0.00,,SKC,0.00,VWS V14.01,2013-08-18 16:54:00,
2013-08-18 12:59:00,72.7,43.5,29.80,ENE,66,0.0,0.0,35,0.00,,SKC,0.00,VWS V14.01,2013-08-18 16:59:00,
2013-08-18 13:04:00,72.7,44.2,29.80,ENE,66,0.0,0.0,36,0.00,,SKC,0.00,VWS V14.01,2013-08-18 17:04:00,
2013-08-18 13:09:00,72.9,47.2,29.77,ENE,66,0.0,0.0,40,0.00,,SKC,0.00,VWS V14.01,2013-08-18 17:09:00,
2013-08-18 13:14:00,72.9,45.8,29.77,ENE,66,0.0,0.0,38,0.00,,SKC,0.00,VWS V14.01,2013-08-18 17:14:00,
2013-08-18 13:19:00,72.9,44.4,29.77,ENE,66,0.0,0.0,36,0.00,,SKC,0.00,VWS V14.01,2013-08-18 17:19:00,
2013-08-18 13:24:00,73.2,44.7,29.77,ENE,66,0.0,0.0,36,0.00,,SKC,0.00,VWS V14.01,2013-08-18 17:24:00,
2013-08-18 13:29:00,73.6,45.0,29.77,ENE,66,0.0,0.0,36,0.00,,SKC,0.00,VWS V14.01,2013-08-18 17:29:00,
2013-08-18 13:34:00,73.6,43.5,29.77,ENE,66,0.0,0.0,34,0.00,,SKC,0.00,VWS V14.01,2013-08-18 17:34:00,
2013-08-18 13:39:00,73.8,43.7,29.77,ENE,66,0.0,0.0,34,0.00,,SKC,0.00,VWS V14.01,2013-08-18 17:39:00,
2013-08-18 13:44:00,73.9,43.8,29.77,ENE,66,0.0,0.0,34,0.00,,SKC,0.00,VWS V14.01,2013-08-18 17:44:00,
2013-08-18 13:48:00,74.1,44.0,29.77,ENE,66,0.0,0.0,34,0.00,,SKC,0.00,VWS V14.01,2013-08-18 17:48:00,
2013-08-18 13:53:00,74.1,43.2,29.77,ENE,66,0.0,0.0,33,0.00,,SKC,0.00,VWS V14.01,2013-08-18 17:53:00,
2013-08-18 13:58:00,74.5,43.5,29.77,ENE,66,0.0,0.0,33,0.00,,SKC,0.00,VWS V14.01,2013-08-18 17:58:00,
2013-08-18 14:03:00,74.7,42.9,29.77,West,264,0.0,0.0,32,0.00,,SKC,0.00,VWS V14.01,2013-08-18 18:03:00,
2013-08-18 14:08:00,74.7,42.9,29.77,West,264,0.0,0.0,32,0.00,,SKC,0.00,VWS V14.01,2013-08-18 18:08:00,
2013-08-18 14:13:00,74.5,42.7,29.77,West,264,0.0,0.0,32,0.00,,SKC,0.00,VWS V14.01,2013-08-18 18:13:00,
2013-08-18 14:18:00,74.5,42.7,29.77,West,264,0.0,0.0,32,0.00,,SKC,0.00,VWS V14.01,2013-08-18 18:18:00,
2013-08-18 14:23:00,74.3,42.6,29.74,NW,312,4.8,4.8,32,0.00,,SKC,0.00,VWS V14.01,2013-08-18 18:23:00,
2013-08-18 14:28:00,73.9,42.2,29.74,NE,43,0.0,0.0,32,0.00,,SKC,0.00,VWS V14.01,2013-08-18 18:28:00,
2013-08-18 14:33:00,73.8,42.9,29.74,NE,43,0.0,0.0,33,0.00,,SKC,0.00,VWS V14.01,2013-08-18 18:33:00,
2013-08-18 14:38:00,73.9,43.0,29.74,NE,43,0.0,0.0,33,0.00,,SKC,0.00,VWS V14.01,2013-08-18 18:38:00,
2013-08-18 14:43:00,73.9,43.0,29.74,NE,43,0.0,0.0,33,0.00,,SKC,0.00,VWS V14.01,2013-08-18 18:43:00,
2013-08-18 14:48:00,73.8,42.9,29.74,ENE,67,0.0,0.0,33,0.00,,SKC,0.00,VWS V14.01,2013-08-18 18:48:00,
2013-08-18 14:53:00,73.8,42.9,29.74,ENE,59,0.0,0.0,33,0.00,,SKC,0.00,VWS V14.01,2013-08-18 18:53:00,
2013-08-18 14:58:00,73.8,42.9,29.74,North,5,0.0,0.0,33,0.00,,SKC,0.00,VWS V14.01,2013-08-18 18:58:00,
2013-08-18 15:03:00,73.9,43.0,29.74,ENE,76,0.0,0.0,33,0.00,,SKC,0.00,VWS V14.01,2013-08-18 19:03:00,
2013-08-18 15:08:00,73.9,42.2,29.74,ENE,68,4.8,4.8,32,0.00,,SKC,0.00,VWS V14.01,2013-08-18 19:08:00,
2013-08-18 15:13:00,73.8,42.1,29.74,ENE,57,0.0,0.0,32,0.00,,SKC,0.00,VWS V14.01,2013-08-18 19:13:00,
2013-08-18 15:18:00,73.9,42.2,29.74,ENE,57,0.0,0.0,32,0.00,,SKC,0.00,VWS V14.01,2013-08-18 19:18:00,
2013-08-18 15:23:00,73.9,42.2,29.71,East,91,0.0,0.0,32,0.00,,SKC,0.00,VWS V14.01,2013-08-18 19:23:00,
2013-08-18 15:28:00,74.1,42.4,29.71,NNE,28,0.0,0.0,32,0.00,,SKC,0.00,VWS V14.01,2013-08-18 19:28:00,
2013-08-18 15:33:00,74.3,42.6,29.71,NNE,28,0.0,0.0,32,0.00,,SKC,0.00,VWS V14.01,2013-08-18 19:33:00,
2013-08-18 15:38:00,74.3,42.6,29.71,NNE,28,0.0,0.0,32,0.00,,SKC,0.00,VWS V14.01,2013-08-18 19:38:00,
2013-08-18 15:43:00,74.1,41.6,29.71,NNE,29,0.0,0.0,31,0.00,,SKC,0.00,VWS V14.01,2013-08-18 19:43:00,
2013-08-18 15:48:00,74.1,41.6,29.71,ENE,68,0.0,0.0,31,0.00,,SKC,0.00,VWS V14.01,2013-08-18 19:48:00,
2013-08-18 15:53:00,73.9,42.2,29.71,ENE,68,0.0,0.0,32,0.00,,SKC,0.00,VWS V14.01,2013-08-18 19:53:00,
2013-08-18 15:58:00,73.8,42.1,29.71,ENE,68,0.0,0.0,32,0.00,,SKC,0.00,VWS V14.01,2013-08-18 19:58:00,
2013-08-18 16:03:00,73.8,42.9,29.71,ENE,68,0.0,0.0,33,0.00,,SKC,0.00,VWS V14.01,2013-08-18 20:03:00,
2013-08-18 16:08:00,73.6,44.3,29.71,ENE,68,0.0,0.0,35,0.00,,SKC,0.00,VWS V14.01,2013-08-18 20:08:00,
2013-08-18 16:13:00,73.2,46.1,29.71,ENE,68,0.0,0.0,38,0.00,,SKC,0.00,VWS V14.01,2013-08-18 20:13:00,
2013-08-18 16:18:00,73.0,47.3,29.71,ENE,68,0.0,0.0,40,0.00,,SKC,0.00,VWS V14.01,2013-08-18 20:18:00,
2013-08-18 16:23:00,72.7,47.7,29.71,ENE,68,0.0,0.0,41,0.00,,SKC,0.00,VWS V14.01,2013-08-18 20:23:00,
2013-08-18 16:28:00,72.5,47.5,29.71,ENE,68,0.0,0.0,41,0.00,,SKC,0.00,VWS V14.01,2013-08-18 20:28:00,
2013-08-18 16:33:00,72.1,46.5,29.71,ENE,68,0.0,0.0,40,0.00,,SKC,0.00,VWS V14.01,2013-08-18 20:33:00,
2013-08-18 16:38:00,72.0,45.0,29.71,ENE,68,0.0,0.0,38,0.00,,SKC,0.00,VWS V14.01,2013-08-18 20:38:00,
2013-08-18 16:43:00,72.0,44.3,29.71,ENE,68,0.0,0.0,37,0.00,,SKC,0.00,VWS V14.01,2013-08-18 20:43:00,
2013-08-18 16:48:00,72.1,44.5,29.71,North,8,0.0,0.0,37,0.00,,SKC,0.00,VWS V14.01,2013-08-18 20:48:00,
2013-08-18 16:53:00,72.1,44.5,29.71,North,8,0.0,0.0,37,0.00,,SKC,0.00,VWS V14.01,2013-08-18 20:53:00,
2013-08-18 16:58:00,72.1,45.2,29.71,NNE,13,0.0,0.0,38,0.00,,SKC,0.00,VWS V14.01,2013-08-18 20:58:00,
2013-08-18 17:03:00,72.3,45.3,29.71,NNE,13,0.0,0.0,38,0.00,,SKC,0.00,VWS V14.01,2013-08-18 21:03:00,
2013-08-18 17:08:00,72.3,45.3,29.71,NNE,13,0.0,0.0,38,0.00,,SKC,0.00,VWS V14.01,2013-08-18 21:08:00,
2013-08-18 17:13:00,72.7,47.0,29.71,NNE,13,0.0,0.0,40,0.00,,SKC,0.00,VWS V14.01,2013-08-18 21:13:00,
2013-08-18 17:18:00,72.3,45.3,29.71,NNE,13,0.0,0.0,38,0.00,,SKC,0.00,VWS V14.01,2013-08-18 21:18:00,
2013-08-18 17:23:00,72.1,45.2,29.71,NNE,13,0.0,0.0,38,0.00,,SKC,0.00,VWS V14.01,2013-08-18 21:23:00,
2013-08-18 17:28:00,71.8,45.5,29.71,NNE,13,0.0,0.0,39,0.00,,SKC,0.00,VWS V14.01,2013-08-18 21:28:00,
2013-08-18 17:33:00,71.6,46.0,29.71,NNE,13,0.0,0.0,40,0.00,,SKC,0.00,VWS V14.01,2013-08-18 21:33:00,
2013-08-18 17:38:00,71.6,46.0,29.71,NNE,13,0.0,0.0,40,0.00,,SKC,0.00,VWS V14.01,2013-08-18 21:38:00,
2013-08-18 17:43:00,71.4,46.5,29.71,NNE,13,0.0,0.0,41,0.00,,SKC,0.00,VWS V14.01,2013-08-18 21:43:00,
2013-08-18 17:48:00,71.4,46.5,29.71,NNE,13,0.0,0.0,41,0.00,,SKC,0.00,VWS V14.01,2013-08-18 21:48:00,
2013-08-18 17:53:00,71.4,46.5,29.71,NNE,13,0.0,0.0,41,0.00,,SKC,0.00,VWS V14.01,2013-08-18 21:53:00,
2013-08-18 17:58:00,71.2,47.0,29.71,NNE,13,0.0,0.0,42,0.00,,SKC,0.00,VWS V14.01,2013-08-18 21:58:00,
2013-08-18 18:03:00,71.4,47.2,29.71,NNE,13,0.0,0.0,42,0.00,,SKC,0.00,VWS V14.01,2013-08-18 22:03:00,
2013-08-18 18:08:00,71.6,47.3,29.71,NNE,13,0.0,0.0,42,0.00,,SKC,0.00,VWS V14.01,2013-08-18 22:08:00,
2013-08-18 18:13:00,71.6,47.3,29.71,NNE,13,0.0,0.0,42,0.00,,SKC,0.00,VWS V14.01,2013-08-18 22:13:00,
2013-08-18 18:18:00,71.4,47.8,29.71,NNE,13,0.0,0.0,43,0.00,,SKC,0.00,VWS V14.01,2013-08-18 22:18:00,
2013-08-18 18:23:00,71.6,47.3,29.71,NNE,13,0.0,0.0,42,0.00,,SKC,0.00,VWS V14.01,2013-08-18 22:23:00,
2013-08-18 18:28:00,71.6,47.3,29.71,NNE,13,0.0,0.0,42,0.00,,SKC,0.00,VWS V14.01,2013-08-18 22:28:00,
2013-08-18 18:33:00,71.6,47.3,29.71,NNE,13,0.0,0.0,42,0.00,,SKC,0.00,VWS V14.01,2013-08-18 22:33:00,
2013-08-18 18:38:00,71.4,47.8,29.68,NNE,13,0.0,0.0,43,0.00,,SKC,0.00,VWS V14.01,2013-08-18 22:38:00,
2013-08-18 18:43:00,71.4,47.8,29.68,NNE,13,0.0,0.0,43,0.00,,SKC,0.00,VWS V14.01,2013-08-18 22:43:00,
2013-08-18 18:48:00,71.2,47.6,29.68,NNE,13,0.0,0.0,43,0.00,,SKC,0.00,VWS V14.01,2013-08-18 22:48:00,
2013-08-18 18:53:00,71.2,47.6,29.71,NNE,13,0.0,0.0,43,0.00,,SKC,0.00,VWS V14.01,2013-08-18 22:53:00,
2013-08-18 18:58:00,71.2,48.2,29.71,NNE,13,0.0,0.0,44,0.00,,SKC,0.00,VWS V14.01,2013-08-18 22:58:00,
2013-08-18 19:03:00,71.1,48.1,29.71,NNE,13,0.0,0.0,44,0.00,,SKC,0.00,VWS V14.01,2013-08-18 23:03:00,
2013-08-18 19:08:00,70.9,47.9,29.68,NNE,13,0.0,0.0,44,0.00,,SKC,0.00,VWS V14.01,2013-08-18 23:08:00,
2013-08-18 19:13:00,70.9,48.5,29.68,NNE,13,0.0,0.0,45,0.00,,SKC,0.00,VWS V14.01,2013-08-18 23:13:00,
2013-08-18 19:18:00,70.7,48.3,29.68,NNE,13,0.0,0.0,45,0.00,,SKC,0.00,VWS V14.01,2013-08-18 23:18:00,
2013-08-18 19:23:00,70.3,48.0,29.68,NNE,13,0.0,0.0,45,0.00,,SKC,0.00,VWS V14.01,2013-08-18 23:23:00,
2013-08-18 19:28:00,70.3,48.6,29.68,NNE,13,0.0,0.0,46,0.00,,SKC,0.00,VWS V14.01,2013-08-18 23:28:00,
2013-08-18 19:33:00,70.2,48.4,29.68,NNE,13,0.0,0.0,46,0.00,,SKC,0.00,VWS V14.01,2013-08-18 23:33:00,
2013-08-18 19:38:00,70.0,48.3,29.71,NNE,13,0.0,0.0,46,0.00,,SKC,0.00,VWS V14.01,2013-08-18 23:38:00,
2013-08-18 19:43:00,69.8,48.1,29.71,NNE,13,0.0,0.0,46,0.00,,SKC,0.00,VWS V14.01,2013-08-18 23:43:00,
2013-08-18 19:48:00,69.8,48.7,29.71,NNE,13,0.0,0.0,47,0.00,,SKC,0.00,VWS V14.01,2013-08-18 23:48:00,
2013-08-18 19:53:00,69.6,48.5,29.71,NNE,13,0.0,0.0,47,0.00,,SKC,0.00,VWS V14.01,2013-08-18 23:53:00,
2013-08-18 19:58:00,69.6,49.6,29.71,NNE,13,0.0,0.0,49,0.00,,SKC,0.00,VWS V14.01,2013-08-18 23:58:00,
2013-08-18 20:03:00,69.4,49.5,29.71,NNE,13,0.0,0.0,49,0.00,,SKC,0.00,VWS V14.01,2013-08-19 00:03:00,
2013-08-18 20:08:00,69.3,49.3,29.68,NNE,13,0.0,0.0,49,0.00,,SKC,0.00,VWS V14.01,2013-08-19 00:08:00,
2013-08-18 20:13:00,69.3,49.3,29.68,NNE,13,0.0,0.0,49,0.00,,SKC,0.00,VWS V14.01,2013-08-19 00:13:00,
2013-08-18 20:18:00,69.1,49.1,29.68,NNE,13,0.0,0.0,49,0.00,,SKC,0.00,VWS V14.01,2013-08-19 00:18:00,
2013-08-18 20:23:00,68.9,49.5,29.71,NNE,13,0.0,0.0,50,0.00,,SKC,0.00,VWS V14.01,2013-08-19 00:23:00,
2013-08-18 20:28:00,68.7,49.3,29.71,NNE,13,0.0,0.0,50,0.00,,SKC,0.00,VWS V14.01,2013-08-19 00:28:00,
2013-08-18 20:33:00,68.7,49.9,29.71,NNE,13,0.0,0.0,51,0.00,,SKC,0.00,VWS V14.01,2013-08-19 00:33:00,
2013-08-18 20:38:00,68.5,49.7,29.71,NNE,13,0.0,0.0,51,0.00,,SKC,0.00,VWS V14.01,2013-08-19 00:38:00,
2013-08-18 20:43:00,68.4,49.5,29.71,NNE,13,0.0,0.0,51,0.00,,SKC,0.00,VWS V14.01,2013-08-19 00:43:00,
2013-08-18 20:48:00,68.2,49.4,29.71,NNE,13,0.0,0.0,51,0.00,,SKC,0.00,VWS V14.01,2013-08-19 00:48:00,
2013-08-18 20:53:00,68.0,49.7,29.68,NNE,13,0.0,0.0,52,0.00,,SKC,0.00,VWS V14.01,2013-08-19 00:53:00,
2013-08-18 20:58:00,68.0,49.7,29.68,NNE,13,0.0,0.0,52,0.00,,SKC,0.00,VWS V14.01,2013-08-19 00:58:00,
2013-08-18 21:03:00,67.8,50.1,29.68,NNE,13,0.0,0.0,53,0.00,,SKC,0.00,VWS V14.01,2013-08-19 01:03:00,
2013-08-18 21:08:00,67.8,51.6,29.71,NNE,13,0.0,0.0,56,0.00,,SKC,0.00,VWS V14.01,2013-08-19 01:08:00,
2013-08-18 21:13:00,67.6,50.9,29.71,NNE,13,0.0,0.0,55,0.00,,SKC,0.00,VWS V14.01,2013-08-19 01:13:00,
2013-08-18 21:18:00,67.6,51.4,29.71,NNE,13,0.0,0.0,56,0.00,,SKC,0.00,VWS V14.01,2013-08-19 01:18:00,
2013-08-18 21:23:00,67.5,51.2,29.71,NNE,13,0.0,0.0,56,0.00,,SKC,0.00,VWS V14.01,2013-08-19 01:23:00,
2013-08-18 21:28:00,67.3,51.1,29.68,NNE,13,0.0,0.0,56,0.00,,SKC,0.00,VWS V14.01,2013-08-19 01:28:00,
2013-08-18 21:33:00,67.1,50.9,29.68,NNE,13,0.0,0.0,56,0.00,,SKC,0.00,VWS V14.01,2013-08-19 01:33:00,
2013-08-18 21:38:00,67.1,51.4,29.71,NNE,13,0.0,0.0,57,0.00,,SKC,0.00,VWS V14.01,2013-08-19 01:38:00,
2013-08-18 21:43:00,66.9,51.2,29.71,NNE,13,0.0,0.0,57,0.00,,SKC,0.00,VWS V14.01,2013-08-19 01:43:00,
2013-08-18 21:48:00,66.7,51.0,29.71,NNE,13,0.0,0.0,57,0.00,,SKC,0.00,VWS V14.01,2013-08-19 01:48:00,
2013-08-18 21:53:00,66.7,51.5,29.71,NNE,13,0.0,0.0,58,0.00,,SKC,0.00,VWS V14.01,2013-08-19 01:53:00,
2013-08-18 21:58:00,66.6,51.3,29.71,NNE,13,0.0,0.0,58,0.00,,SKC,0.00,VWS V14.01,2013-08-19 01:58:00,
2013-08-18 22:03:00,66.4,51.6,29.71,NNE,13,0.0,0.0,59,0.00,,SKC,0.00,VWS V14.01,2013-08-19 02:03:00,
2013-08-18 22:08:00,66.4,51.6,29.71,NNE,13,0.0,0.0,59,0.00,,SKC,0.00,VWS V14.01,2013-08-19 02:08:00,
2013-08-18 22:13:00,66.2,51.9,29.71,NNE,13,0.0,0.0,60,0.00,,SKC,0.00,VWS V14.01,2013-08-19 02:13:00,
2013-08-18 22:18:00,66.2,51.9,29.71,NNE,13,0.0,0.0,60,0.00,,SKC,0.00,VWS V14.01,2013-08-19 02:18:00,
2013-08-18 22:23:00,66.0,52.2,29.71,NNE,13,0.0,0.0,61,0.00,,SKC,0.00,VWS V14.01,2013-08-19 02:23:00,
2013-08-18 22:28:00,66.0,52.2,29.71,NNE,13,0.0,0.0,61,0.00,,SKC,0.00,VWS V14.01,2013-08-19 02:28:00,
2013-08-18 22:32:00,65.8,52.5,29.71,NNE,13,0.0,0.0,62,0.00,,SKC,0.00,VWS V14.01,2013-08-19 02:32:00,
2013-08-18 22:37:00,65.8,52.5,29.71,NNE,13,0.0,0.0,62,0.00,,SKC,0.00,VWS V14.01,2013-08-19 02:37:00,
2013-08-18 22:42:00,65.7,52.3,29.71,NNE,13,0.0,0.0,62,0.00,,SKC,0.00,VWS V14.01,2013-08-19 02:42:00,
2013-08-18 22:47:00,65.5,52.6,29.71,NNE,13,0.0,0.0,63,0.00,,SKC,0.00,VWS V14.01,2013-08-19 02:47:00,
2013-08-18 22:52:00,65.3,52.4,29.71,NNE,13,0.0,0.0,63,0.00,,SKC,0.00,VWS V14.01,2013-08-19 02:52:00,
2013-08-18 22:57:00,65.1,52.2,29.71,NNE,13,0.0,0.0,63,0.00,,SKC,0.00,VWS V14.01,2013-08-19 02:57:00,
2013-08-18 23:02:00,65.1,52.7,29.71,NNE,13,0.0,0.0,64,0.00,,SKC,0.00,VWS V14.01,2013-08-19 03:02:00,
2013-08-18 23:07:00,64.9,52.5,29.68,NNE,13,0.0,0.0,64,0.00,,SKC,0.00,VWS V14.01,2013-08-19 03:07:00,
2013-08-18 23:12:00,64.8,52.3,29.68,NNE,13,0.0,0.0,64,0.00,,SKC,0.00,VWS V14.01,2013-08-19 03:12:00,
2013-08-18 23:17:00,64.6,52.1,29.68,NNE,13,0.0,0.0,64,0.00,,SKC,0.00,VWS V14.01,2013-08-19 03:17:00,
2013-08-18 23:22:00,64.4,52.4,29.71,NNE,13,0.0,0.0,65,0.00,,SKC,0.00,VWS V14.01,2013-08-19 03:22:00,
2013-08-18 23:27:00,64.4,52.4,29.71,NNE,13,0.0,0.0,65,0.00,,SKC,0.00,VWS V14.01,2013-08-19 03:27:00,
2013-08-18 23:32:00,64.2,52.6,29.71,NNE,13,0.0,0.0,66,0.00,,SKC,0.00,VWS V14.01,2013-08-19 03:32:00,
2013-08-18 23:37:00,64.0,52.5,29.68,NNE,13,0.0,0.0,66,0.00,,SKC,0.00,VWS V14.01,2013-08-19 03:37:00,
2013-08-18 23:42:00,63.9,52.3,29.68,NNE,13,0.0,0.0,66,0.00,,SKC,0.00,VWS V14.01,2013-08-19 03:42:00,
2013-08-18 23:47:00,63.7,52.5,29.68,NNE,13,0.0,0.0,67,0.00,,SKC,0.00,VWS V14.01,2013-08-19 03:47:00,
2013-08-18 23:52:00,63.5,52.4,29.68,NNE,13,0.0,0.0,67,0.00,,SKC,0.00,VWS V14.01,2013-08-19 03:52:00,
2013-08-18 23:57:00,63.5,52.4,29.68,NNE,13,0.0,0.0,67,0.00,,SKC,0.00,VWS V14.01,2013-08-19 03:57:00,